Location: St. Louis
(38.6270°N, 90.1994°W)
Time: 02:00:51
(UTC-06:00)

Courier 1B Rocket - Pass Details

Date: 04 December 2021
Orbit: 920 x 1202 km, 28.2° (Epoch: 16 January)

Event Time Altitude Azimuth Distance (km) Brightness Sun altitude
Rises 02:15:58 0° 259° (W) 3,552 - -55.1°
Reaches altitude 10° 02:19:01 10° 246° (WSW) 2,603 - -54.5°
Maximum altitude 02:23:55 24° 194° (SSW) 1,788 - -53.6°
Drops below altitude 10° 02:28:53 10° 142° (SE) 2,646 - -52.6°
Sets 02:32:02 0° 129° (SE) 3,623 - -52.0°
